Terminal Aerodrome Forecast
Issued by NWS

Home | Current Version | Previous Version | Text Only | Print | Product List | Glossary On
Versions: 1 2 3 4 5 6 7 8 9 10 11 12 13 14 15 16 17 18 19 20 21 22 23 24 25 26 27 28 29 30 31 32 33 34 35 36 37 38 39 40 41 42 43 44 45 46 47 48 49 50
000
FTUS45 KGJT 040916 AAA
TAFASE
TAF AMD
KASE 040916Z 0409/0506 35005G15KT 4SM -SN BR OVC020
      TEMPO 0410/0414 3SM -SHSN BR BKN010 OVC015
     FM041400 33005KT P6SM VCSH FEW015 BKN025 OVC040
     FM041800 35008G18KT P6SM SCT030 BKN050
     FM042100 35010KT P6SM SCT050
     FM050200 21005KT P6SM SKC=

USA.gov is the U.S. government's official web portal to all federal, state and local government web resources and services.